Flag for Canada Weather past 2 weeks in Quesnel, British Columbia, Canada

Now
16 °F

Sunny.


Feels Like: 16 °F
Forecast: 13 / 34 °F
Wind: No wind

Location: Quesnel Airport

Current Time: Mar 4, 2015 at 9:50:58 AM

Latest Report: Mar 4, 2015 at 9:00 AM


Visibility: 7 mi

Pressure: 30.35 "Hg

Humidity: 73%

Dew point: 9 °F

Location of QuesnelLocation

Historic Weather in Quesnel — Graph

°F

Quesnel temperature yesterday

Maximum temperature yesterday: 32 °F (at 4:00 PM)
Minimum temperature yesterday: 5 °F (at 5:00 AM)
Average temperature yesterday: 17 °F

Past Weeks' High & Low Weather Summary

 TemperatureHumidityPressure
High54 °F (Feb 23, 3:00 PM)100% (Feb 17, 8:00 AM)30.63 "Hg (Feb 17, 8:00 AM)
Low5 °F (Mar 3, 5:00 AM)24% (Mar 3, 3:00 PM)30.02 "Hg (Feb 18, 2:00 PM)
Average34 °F81%30.32 "Hg
* Reported Feb 17 8:00 AM — Mar 4 8:00 AM, Quesnel, Weather by CustomWeather, © 2015

Note: Actual official high and low records may vary slightly from our data, if they occured in-between our weather recording intervals... More about our weather records

Advertising

Quesnel weather history for previous 24 hours

 ConditionsComfort  
Time TempWeatherWind HumidityBarometerVisibility
8:00 AM
Wed, Mar 4
10 °FSunny.No wind85%30.35 "Hg9 mi
7:00 AM10 °FSunny.No wind85%30.34 "Hg9 mi
6:00 AM9 °FClear.2 mph85%30.35 "Hg9 mi
5:00 AM10 °FClear.No wind85%30.33 "Hg9 mi
4:00 AM12 °FClear.No wind79%30.32 "Hg9 mi
3:00 AM12 °FClear.No wind79%30.32 "Hg9 mi
2:00 AM14 °FClear.No wind79%30.32 "Hg9 mi
1:00 AM14 °FClear.No wind79%30.33 "Hg9 mi
12:00 AM16 °FClear.No wind73%30.32 "Hg9 mi
11:00 PM
Tue, Mar 3
18 °FPassing clouds.No wind73%30.33 "Hg9 mi
10:00 PM19 °FClear.No wind68%30.33 "Hg9 mi
9:00 PM21 °FClear.No wind68%30.34 "Hg9 mi
8:00 PM21 °FClear.No wind74%30.34 "Hg9 mi
7:00 PM23 °FClear.2 mph58%30.34 "Hg9 mi
6:00 PM27 °FClear.No wind46%30.34 "Hg9 mi
5:00 PM30 °FSunny.2 mph31%30.34 "Hg9 mi
4:00 PM32 °FSunny.2 mph27%30.34 "Hg9 mi
3:00 PM30 °FSunny.No wind24%30.37 "Hg9 mi
2:00 PM28 °FSunny.No wind31%30.39 "Hg9 mi
1:00 PM25 °FSunny.2 mph36%30.42 "Hg9 mi
12:00 PM21 °FSunny.No wind42%30.44 "Hg9 mi
11:00 AM18 °FSunny.No wind58%30.47 "Hg6 mi
10:00 AM14 °FSunny.No wind62%30.48 "Hg9 mi
9:00 AM9 °FSunny.No wind72%30.50 "Hg9 mi
Weather by CustomWeather, © 2015

See weather overviewHow to use our weather pages